Weather History for PAKT - March, 2014

Change the Weather History Date:

Friday, March 28, 2014

  Actual Average Record
Temperature  
Mean Temperature 42 °F -  
Max Temperature 53 °F 45 °F 56 °F (1961)
Min Temperature 30 °F 33 °F 23 °F (1971)
Degree Days  
Heating Degree Days 24    
Moisture  
Dew Point 24 °F    
Average Humidity 53    
Maximum Humidity 79    
Minimum Humidity 30    
Precipitation  
Precipitation 0.00 in - - ()
Sea Level Pressure  
Sea Level Pressure 29.59 in    
Wind  
Wind Speed 3 mph (ENE)    
Max Wind Speed 10 mph    
Max Gust Speed -    
Visibility 10 miles    
Events      
Averages and records for this station are not official NWS values.
T = Trace of Precipitation, MM = Missing Value Source: NWS Daily Summary

Daily Weather History Graph

Daily Weather History Graph

Search for Another Location

Airport or City:

Trip Planner

Search our weather history database for the weather conditions in past years. The results will help you decide how hot, cold, wet, or windy it might be!

Date:

Astronomy

Mar. 28, 2014 Rise Set
Actual Time 6:27 AM AKDT 7:16 PM AKDT
Civil Twilight 5:51 AM AKDT 7:53 PM AKDT
Nautical Twilight 5:06 AM AKDT 8:38 PM AKDT
Astronomical Twilight 4:18 AM AKDT 9:27 PM AKDT
Moon 5:24 AM AKDT 5:05 PM AKDT
Length of Visible Light 14h 02m
Length of Day
12h 48m
Waning Crescent, 5% of the Moon is Illuminated
Mar 28
Waning Crescent
Mar 30
New
Apr 7
First Quarter
Apr 14
Full
Apr 21
Last Quarter

Hourly Weather History & Observations

Time (AKDT) Temp. Windchill Dew Point Humidity Pressure Visibility Wind Dir Wind Speed Gust Speed Precip Events Conditions
12:53 AM 32.0 °F 28.7 °F 24.1 °F 73% 29.76 in 10.0 mi WSW 3.5 mph - N/A   Mostly Cloudy
1:53 AM 33.1 °F - 24.1 °F 70% 29.75 in 10.0 mi Calm Calm - N/A   Mostly Cloudy
2:53 AM 32.0 °F - 24.1 °F 73% 29.74 in 10.0 mi Calm Calm - N/A   Overcast
3:53 AM 30.9 °F - 23.0 °F 72% 29.73 in 10.0 mi Calm Calm - N/A   Clear
4:53 AM 30.9 °F 27.5 °F 24.1 °F 76% 29.70 in 10.0 mi SE 3.5 mph - N/A   Clear
5:53 AM 30.9 °F - 23.0 °F 72% 29.69 in 10.0 mi Calm Calm - N/A   Clear
6:53 AM 30.0 °F - 24.1 °F 79% 29.68 in 10.0 mi Calm Calm - N/A   Clear
7:53 AM 35.1 °F - 26.1 °F 70% 29.65 in 10.0 mi Calm Calm - N/A   Clear
8:53 AM 39.9 °F 37.8 °F 25.0 °F 55% 29.63 in 10.0 mi North 3.5 mph - N/A   Clear
9:53 AM 42.1 °F - 25.0 °F 51% 29.62 in 10.0 mi Calm Calm - N/A   Clear
10:53 AM 46.0 °F - 23.0 °F 40% 29.60 in 10.0 mi Calm Calm - N/A   Clear
11:53 AM 46.9 °F - 26.1 °F 44% 29.57 in 10.0 mi NNW 8.1 mph - N/A   Clear
12:53 PM 48.9 °F - 26.1 °F 41% 29.56 in 10.0 mi NNW 8.1 mph - N/A   Clear
1:53 PM 50.0 °F - 25.0 °F 38% 29.53 in 10.0 mi NW 8.1 mph - N/A   Clear
2:53 PM 53.1 °F - 23.0 °F 31% 29.51 in 10.0 mi Calm Calm - N/A   Clear
3:53 PM 53.1 °F - 21.9 °F 30% 29.49 in 10.0 mi ENE 9.2 mph - N/A   Clear
4:53 PM 51.1 °F - 23.0 °F 33% 29.49 in 10.0 mi ESE 10.4 mph - N/A   Clear
5:53 PM 50.0 °F - 23.0 °F 35% 29.49 in 10.0 mi ESE 10.4 mph - N/A   Clear
6:53 PM 48.0 °F - 23.0 °F 37% 29.49 in 10.0 mi ESE 6.9 mph - N/A   Partly Cloudy
7:53 PM 46.0 °F - 24.1 °F 42% 29.49 in 10.0 mi Calm Calm - N/A   Overcast
8:53 PM 44.1 °F 42.5 °F 24.1 °F 45% 29.51 in 10.0 mi SSW 3.5 mph - N/A   Overcast
9:53 PM 42.1 °F - 27.0 °F 55% 29.52 in 10.0 mi Calm Calm - N/A   Overcast
10:53 PM 42.1 °F - 26.1 °F 53% 29.53 in 10.0 mi Calm Calm - N/A   Overcast
11:53 PM 41.0 °F - 26.1 °F 55% 29.54 in 10.0 mi Calm Calm - N/A   Overcast